Jefferson, NC

5:39 AM EST on December 16, 2019 (GMT -0500)
Ashe County

Weather History for KGEV - August, 2019

Change the Weather History Date:

Thursday, August 1, 2019

  Actual Average Record
Temperature  
Mean Temperature 67 °F -  
Max Temperature 77 °F 79 °F 87 °F (2006)
Min Temperature 57 °F 58 °F 46 °F (1993)
Cooling Degree Days 2    
Growing Degree Days 17 (Base 50)    
Moisture  
Dew Point 63 °F    
Average Humidity 91    
Maximum Humidity 100    
Minimum Humidity 63    
Precipitation  
Precipitation 0.11 in - - ()
Sea Level Pressure  
Sea Level Pressure 30.21 in    
Wind  
Wind Speed 1 mph ()    
Max Wind Speed 7 mph    
Max Gust Speed -    
Visibility 7.4 miles    
Events Fog , Rain , Thunderstorm    
Averages and records for this station are not official NWS values.
T = Trace of Precipitation, MM = Missing Value Source: Averaged Metar Reports

Daily Weather History Graph

Daily Weather History Graph

Search for Another Location

Airport or City:

Astronomy

Aug. 01, 2019 Rise Set
Actual Time 6:31 AM EDT 8:31 PM EDT
Civil Twilight 6:03 AM EDT 8:59 PM EDT
Nautical Twilight 5:28 AM EDT 9:34 PM EDT
Astronomical Twilight 4:51 AM EDT 10:11 PM EDT
Moon 6:55 AM EDT (8/1) 9:18 PM EDT (8/1)
Length of Visible Light 14h 56m
Length of Day
13h 59m
New Moon, 0% of the Moon is Illuminated
Aug 1
New Moon
Aug 7
First Quarter
Aug 15
Full
Aug 23
Last Quarter
Aug 30
New

Hourly Weather History & Observations

Time (EDT) Temp. Dew Point Humidity Pressure Visibility Wind Dir Wind Speed Gust Speed Precip Events Conditions
12:15 AM 63.5 °F 62.6 °F 97% 30.22 in 10.0 mi West 5.8 mph - N/A   Clear
12:35 AM 64.9 °F 62.4 °F 92% 30.21 in 10.0 mi Calm Calm - N/A   Clear
12:55 AM 63.1 °F 62.6 °F 98% 30.21 in 10.0 mi West 3.5 mph - N/A   Scattered Clouds
1:15 AM 65.7 °F 62.8 °F 90% 30.21 in 10.0 mi Calm Calm - N/A   Clear
1:35 AM 66.6 °F 62.1 °F 85% 30.20 in 10.0 mi West 4.6 mph - N/A   Clear
1:55 AM 61.9 °F 61.0 °F 97% 30.20 in 1.5 mi Calm Calm - N/A   Scattered Clouds
2:15 AM 61.2 °F 61.2 °F 100% 30.20 in 0.2 mi Calm Calm - N/A Fog Fog
2:35 AM 60.3 °F 60.3 °F 100% 30.20 in 0.2 mi Calm Calm - N/A Fog Fog
2:55 AM 61.7 °F 61.7 °F 100% 30.20 in 10.0 mi Calm Calm - N/A   Scattered Clouds
3:15 AM 62.1 °F 61.9 °F 99% 30.19 in 10.0 mi Calm Calm - N/A   Clear
3:35 AM 62.8 °F 61.9 °F 97% 30.19 in 10.0 mi Calm Calm - N/A   Clear
3:55 AM 59.5 °F 59.5 °F 100% 30.19 in 0.2 mi Calm Calm - N/A Fog Fog
4:15 AM 59.2 °F 59.2 °F 100% 30.20 in 0.2 mi South 4.6 mph - N/A Fog Fog
4:35 AM 59.4 °F 59.4 °F 100% 30.20 in 0.2 mi Calm Calm - N/A Fog Fog
4:55 AM 59.0 °F 59.0 °F 100% 30.20 in 1.2 mi Calm Calm - N/A   Mostly Cloudy
5:15 AM 59.0 °F 59.0 °F 100% 30.20 in 0.2 mi Calm Calm - N/A Fog Fog
5:35 AM 58.6 °F 58.6 °F 100% 30.20 in 0.2 mi Calm Calm - N/A Fog Fog
5:55 AM 58.3 °F 58.3 °F 100% 30.20 in 0.2 mi Calm Calm - N/A Fog Fog
6:15 AM 57.9 °F 57.9 °F 100% 30.20 in 0.2 mi Calm Calm - N/A Fog Fog
6:35 AM 57.9 °F 57.9 °F 100% 30.21 in 0.2 mi Calm Calm - N/A Fog Fog
6:55 AM 58.6 °F 58.6 °F 100% 30.21 in 0.2 mi Calm Calm - N/A Fog Fog
7:15 AM 59.5 °F 59.5 °F 100% 30.21 in 7.0 mi Calm Calm - N/A   Scattered Clouds
7:35 AM 58.8 °F 58.8 °F 100% 30.22 in 0.2 mi Calm Calm - N/A Fog Fog
7:55 AM 59.2 °F 59.2 °F 100% 30.23 in 0.2 mi Calm Calm - N/A Fog Fog
8:15 AM 60.1 °F 60.1 °F 100% 30.22 in 0.2 mi Calm Calm - N/A Fog Fog
8:35 AM 60.6 °F 60.6 °F 100% 30.23 in 0.5 mi Calm Calm - N/A Fog Fog
8:55 AM 63.1 °F 63.1 °F 100% 30.23 in 10.0 mi Calm Calm - N/A   Mostly Cloudy
9:15 AM 64.2 °F 64.0 °F 99% 30.24 in 10.0 mi Calm Calm - N/A   Scattered Clouds
9:35 AM 65.5 °F 64.9 °F 98% 30.24 in 10.0 mi Calm Calm - N/A   Clear
9:55 AM 66.4 °F 65.5 °F 97% 30.24 in 10.0 mi Calm Calm - N/A   Clear
10:15 AM 67.3 °F 65.5 °F 94% 30.24 in 10.0 mi Calm Calm - N/A   Clear
10:35 AM 69.1 °F 66.4 °F 91% 30.24 in 10.0 mi ESE 3.5 mph - N/A   Clear
10:55 AM 69.4 °F 66.2 °F 89% 30.24 in 10.0 mi Calm Calm - N/A   Clear
11:15 AM 72.9 °F 66.0 °F 79% 30.24 in 10.0 mi ESE 3.5 mph - N/A   Clear
11:35 AM 74.1 °F 66.4 °F 77% 30.25 in 10.0 mi Calm Calm - N/A   Mostly Cloudy
11:55 AM 73.2 °F 64.6 °F 74% 30.25 in 10.0 mi Calm Calm - N/A   Mostly Cloudy
12:15 PM 75.0 °F 65.7 °F 73% 30.25 in 10.0 mi SE 3.5 mph - N/A   Scattered Clouds
12:35 PM 75.6 °F 65.3 °F 70% 30.24 in 10.0 mi SSW 3.5 mph - N/A   Overcast
12:55 PM 76.3 °F 64.9 °F 68% 30.24 in 10.0 mi Calm Calm - N/A   Scattered Clouds
1:15 PM 77.9 °F 65.3 °F 65% 30.23 in 10.0 mi SE 3.5 mph - N/A   Scattered Clouds
1:35 PM 74.5 °F 64.4 °F 71% 30.23 in 10.0 mi Calm Calm - N/A Thunderstorm Thunderstorm
1:55 PM 69.3 °F 66.9 °F 92% 30.24 in 5.0 mi SSE 5.8 mph - 0.01 in Rain , Thunderstorm Light Thunderstorms and Rain
2:15 PM 63.7 °F 60.1 °F 88% 30.23 in 10.0 mi South 3.5 mph - 0.03 in Rain , Thunderstorm Light Thunderstorms and Rain
2:35 PM 64.6 °F 62.1 °F 92% 30.24 in 2.0 mi SSW 3.5 mph - 0.09 in Rain , Thunderstorm Heavy Thunderstorms and Rain
2:55 PM 69.8 °F 56.8 °F 63% 30.22 in 10.0 mi Calm Calm - 0.10 in Rain , Thunderstorm Light Thunderstorms and Rain
3:15 PM 68.5 °F 62.4 °F 81% 30.23 in 10.0 mi SSW 3.5 mph - N/A   Scattered Clouds
3:35 PM 67.3 °F 64.8 °F 92% 30.21 in 10.0 mi Calm Calm - N/A   Clear
3:55 PM 66.7 °F 64.0 °F 91% 30.20 in 10.0 mi Calm Calm - N/A Thunderstorm Clear
4:15 PM 68.4 °F 63.5 °F 84% 30.19 in 10.0 mi Calm Calm - N/A   Clear
4:35 PM 68.7 °F 64.9 °F 88% 30.18 in 10.0 mi Calm Calm - N/A   Clear
4:55 PM 69.1 °F 65.5 °F 88% 30.18 in 10.0 mi Calm Calm - N/A   Clear
5:15 PM 68.5 °F 65.7 °F 90% 30.17 in 10.0 mi Calm Calm - N/A   Clear
5:35 PM 69.4 °F 66.0 °F 89% 30.18 in 10.0 mi East 4.6 mph - N/A   Clear
5:55 PM 70.0 °F 66.4 °F 88% 30.18 in 10.0 mi Calm Calm - N/A   Clear
6:15 PM 70.2 °F 65.8 °F 86% 30.18 in 10.0 mi Calm Calm - N/A   Clear
6:35 PM 69.8 °F 65.7 °F 87% 30.19 in 10.0 mi Calm Calm - N/A   Clear
6:55 PM 70.0 °F 65.5 °F 86% 30.19 in 10.0 mi Calm Calm - N/A   Mostly Cloudy
7:15 PM 69.3 °F 66.0 °F 89% 30.18 in 10.0 mi Calm Calm - N/A   Scattered Clouds
7:35 PM 69.8 °F 64.4 °F 83% 30.18 in 10.0 mi Calm Calm - N/A   Clear
7:55 PM 70.0 °F 65.1 °F 85% 30.18 in 10.0 mi Calm Calm - N/A   Clear
8:15 PM 68.0 °F 64.8 °F 89% 30.19 in 10.0 mi Calm Calm - N/A   Clear
8:35 PM 67.1 °F 65.8 °F 96% 30.20 in 10.0 mi Calm Calm - N/A   Clear
8:55 PM 68.2 °F 65.7 °F 92% 30.20 in 10.0 mi Calm Calm - N/A   Mostly Cloudy
9:15 PM 67.6 °F 65.5 °F 93% 30.20 in 10.0 mi Calm Calm - N/A   Mostly Cloudy
9:35 PM 66.0 °F 65.3 °F 98% 30.20 in 5.0 mi SSE 5.8 mph - N/A   Mostly Cloudy
9:55 PM 65.5 °F 64.8 °F 98% 30.22 in 10.0 mi Calm Calm - N/A Rain Light Rain
10:15 PM 64.9 °F 62.8 °F 93% 30.22 in 10.0 mi South 3.5 mph - N/A   Mostly Cloudy
10:35 PM 64.0 °F 62.2 °F 94% 30.22 in 10.0 mi Calm Calm - N/A   Scattered Clouds
10:55 PM 64.4 °F 60.8 °F 88% 30.20 in 10.0 mi SW 4.6 mph - N/A   Scattered Clouds
11:15 PM 65.5 °F 59.9 °F 82% 30.21 in 10.0 mi West 6.9 mph - N/A Thunderstorm Scattered Clouds
11:35 PM 65.5 °F 59.4 °F 81% 30.22 in 10.0 mi Calm Calm - N/A   Clear
11:55 PM 63.0 °F 60.3 °F 91% 30.21 in 10.0 mi SSE 3.5 mph - N/A   Clear